| time (UTC) | temp F | wind direction | speed MPH | gust MPH | rain 1hr in | rain 24hr in | rain mn in | humidity % | barometer mb |
| 20260508182409 | 140 | 109 | 7.0 | 8.0 | 0.00 | 0.03 | 0.03 | 1011.4 | |
| 20260508181904 | 140 | 180 | 7.0 | 8.0 | 0.00 | 0.03 | 0.03 | 1011.6 | |
| 20260508181401 | 140 | 172 | 5.0 | 7.0 | 0.00 | 0.03 | 0.03 | 1011.7 | |
| 20260508180858 | 140 | 173 | 7.0 | 8.0 | 0.00 | 0.03 | 0.03 | 1011.8 | |
| 20260508180355 | 140 | 119 | 7.0 | 11.0 | 0.00 | 0.03 | 0.03 | 1011.8 | |
| 20260508175851 | 140 | 164 | 0.0 | 0.0 | 0.00 | 0.03 | 0.03 | 1012.0 | |
| 20260508175348 | 140 | 153 | 3.0 | 9.0 | 0.00 | 0.03 | 0.03 | 1011.9 | |
| 20260508174846 | 140 | 142 | 8.0 | 9.0 | 0.00 | 0.03 | 0.03 | 1011.9 | |
| 20260508174343 | 140 | 152 | 6.0 | 7.0 | 0.00 | 0.03 | 0.03 | 1012.0 | |
| 20260508173839 | 140 | 98 | 1.0 | 3.0 | 0.00 | 0.03 | 0.03 | 1012.0 | |
| 20260508173337 | 140 | 173 | 0.0 | 0.0 | 0.00 | 0.03 | 0.03 | 1012.2 | |
| 20260508172832 | 140 | 153 | 0.0 | 0.0 | 0.00 | 0.03 | 0.03 | 1012.4 | |
| 20260508172329 | 140 | 175 | 0.0 | 0.0 | 0.00 | 0.03 | 0.03 | 1012.4 | |
| 20260508171826 | 140 | 140 | 6.0 | 8.0 | 0.00 | 0.03 | 0.03 | 1012.6 | |
| 20260508171322 | 140 | 153 | 0.0 | 0.0 | 0.00 | 0.03 | 0.03 | 1012.8 | |
| 20260508170819 | 140 | 113 | 4.0 | 6.0 | 0.00 | 0.03 | 0.03 | 1012.9 | |
| 20260508170317 | 140 | 176 | 0.0 | 0.0 | 0.00 | 0.03 | 0.03 | 1013.0 | |
| 20260508165814 | 140 | 145 | 5.0 | 8.0 | 0.00 | 0.03 | 0.03 | 1013.2 | |
| 20260508165311 | 140 | 144 | 2.0 | 6.0 | 0.00 | 0.03 | 0.03 | 1013.3 | |
| 20260508164807 | 140 | 101 | 3.0 | 3.0 | 0.00 | 0.03 | 0.03 | 1013.0 | |
| 20260508164304 | 140 | 162 | 5.0 | 7.0 | 0.00 | 0.03 | 0.03 | 1013.2 | |
| 20260508163802 | 140 | 120 | 0.0 | 0.0 | 0.00 | 0.03 | 0.03 | 1013.1 | |
| 20260508163259 | 140 | 108 | 0.0 | 0.0 | 0.00 | 0.03 | 0.03 | 1013.2 | |
| 20260508162755 | 140 | 113 | 5.0 | 7.0 | 0.00 | 0.03 | 0.03 | 1013.2 | |
| 20260508162252 | 140 | 178 | 0.0 | 0.0 | 0.00 | 0.03 | 0.03 | 1013.3 | |
| 20260508161749 | 140 | 145 | 3.0 | 6.0 | 0.00 | 0.03 | 0.03 | 1013.4 | |
| 20260508161246 | 140 | 111 | 6.0 | 8.0 | 0.00 | 0.03 | 0.03 | 1013.5 | |
| 20260508160744 | 140 | 143 | 2.0 | 5.0 | 0.00 | 0.03 | 0.03 | 1013.4 | |
| 20260508160242 | 140 | 135 | 0.0 | 0.0 | 0.00 | 0.03 | 0.03 | 1013.5 | |
| 20260508155738 | 140 | 101 | 0.0 | 0.0 | 0.00 | 0.03 | 0.03 | 1013.6 | |
| 20260508155235 | 140 | 161 | 0.0 | 0.0 | 0.00 | 0.03 | 0.03 | 1013.7 | |
| 20260508154732 | 140 | 115 | 3.0 | 8.0 | 0.00 | 0.03 | 0.03 | 1013.8 | |
| 20260508154230 | 140 | 170 | 0.0 | 0.0 | 0.00 | 0.03 | 0.03 | 1014.0 | |
| 20260508153726 | 140 | 143 | 0.0 | 0.0 | 0.00 | 0.03 | 0.03 | 1013.9 | |
| 20260508153223 | 140 | 194 | 3.0 | 5.0 | 0.00 | 0.03 | 0.03 | 1013.8 | |
| 20260508152720 | 140 | 154 | 0.0 | 0.0 | 0.00 | 0.03 | 0.03 | 1013.8 | |
| 20260508152215 | 140 | 121 | 3.0 | 6.0 | 0.00 | 0.03 | 0.03 | 1014.0 | |
| 20260508151712 | 140 | 157 | 0.0 | 0.0 | 0.00 | 0.03 | 0.03 | 1014.1 | |
| 20260508151209 | 140 | 161 | 0.0 | 0.0 | 0.00 | 0.03 | 0.03 | 1013.9 | |
| 20260508150706 | 140 | 120 | 0.0 | 0.0 | 0.00 | 0.03 | 0.03 | 1013.8 | |
| 20260508150202 | 140 | 161 | 0.0 | 0.0 | 0.00 | 0.03 | 0.03 | 1013.9 | |
| 20260508145658 | 140 | 116 | 6.0 | 8.0 | 0.00 | 0.03 | 0.03 | 1014.4 | |
| 20260508145154 | 140 | 128 | 4.0 | 8.0 | 0.00 | 0.03 | 0.03 | 1013.8 | |
| 20260508144652 | 140 | 97 | 7.0 | 8.0 | 0.00 | 0.03 | 0.03 | 1013.9 | |
| 20260508144150 | 140 | 85 | 0.0 | 0.0 | 0.00 | 0.03 | 0.03 | 1014.0 | |
| 20260508143647 | 140 | 121 | 0.0 | 0.0 | 0.00 | 0.03 | 0.03 | 1014.0 | |
| 20260508143144 | 140 | 191 | 0.0 | 0.0 | 0.00 | 0.03 | 0.03 | 1014.2 | |
| 20260508142640 | 140 | 146 | 0.0 | 0.0 | 0.00 | 0.03 | 0.03 | 1014.6 | |
| 20260508142137 | 140 | 133 | 0.0 | 0.0 | 0.00 | 0.03 | 0.03 | 1014.2 | |
| 20260508141633 | 140 | 138 | 0.0 | 0.0 | 0.00 | 0.03 | 0.03 | 1014.6 | |
| 20260508141131 | 140 | 106 | 0.0 | 0.0 | 0.00 | 0.03 | 0.03 | 1014.6 | |
| 20260508140628 | 140 | 166 | 0.0 | 0.0 | 0.00 | 0.03 | 0.03 | 1014.5 | |
| 20260508140125 | 140 | 118 | 0.0 | 0.0 | 0.00 | 0.03 | 0.03 | 1014.7 | |
| 20260508135620 | 140 | 130 | 0.0 | 0.0 | 0.00 | 0.03 | 0.03 | 1014.8 | |
| 20260508135117 | 140 | 168 | 0.0 | 0.0 | 0.00 | 0.03 | 0.03 | 1014.6 | |
| 20260508134614 | 140 | 136 | 0.0 | 0.0 | 0.00 | 0.03 | 0.03 | 1014.8 | |
| 20260508134111 | 140 | 177 | 0.0 | 0.0 | 0.00 | 0.03 | 0.03 | 1014.8 | |
| 20260508133607 | 140 | 113 | 0.0 | 0.0 | 0.00 | 0.03 | 0.03 | 1014.8 | |
| 20260508133105 | 140 | 129 | 0.0 | 0.0 | 0.00 | 0.03 | 0.03 | 1014.6 | |
| 20260508132603 | 140 | 139 | 0.0 | 0.0 | 0.00 | 0.03 | 0.03 | 1014.7 | |
| 20260508132059 | 140 | 148 | 0.0 | 0.0 | 0.00 | 0.03 | 0.03 | 1014.4 | |
| 20260508131555 | 140 | 129 | 0.0 | 0.0 | 0.00 | 0.03 | 0.03 | 1014.6 | |
| 20260508131052 | 140 | 124 | 0.0 | 0.0 | 0.00 | 0.03 | 0.03 | 1014.5 | |
| 20260508130548 | 140 | 103 | 0.0 | 0.0 | 0.00 | 0.03 | 0.03 | 1014.8 | |
| 20260508130045 | 140 | 144 | 0.0 | 0.0 | 0.00 | 0.03 | 0.03 | 1014.6 | |
| 20260508125540 | 140 | 107 | 0.0 | 0.0 | 0.00 | 0.03 | 0.03 | 1014.4 | |
| 20260508125038 | 140 | 148 | 0.0 | 0.0 | 0.00 | 0.03 | 0.03 | 1014.7 | |
| 20260508124536 | 140 | 152 | 0.0 | 0.0 | 0.00 | 0.03 | 0.03 | 1014.6 | |
| 20260508124033 | 140 | 121 | 0.0 | 0.0 | 0.00 | 0.03 | 0.03 | 1014.9 | |
| 20260508123532 | 140 | 196 | 0.0 | 0.0 | 0.00 | 0.03 | 0.03 | 1014.9 | |
| 20260508123028 | 140 | 195 | 0.0 | 0.0 | 0.00 | 0.03 | 0.03 | 1014.7 | |
| 20260508122525 | 140 | 148 | 0.0 | 0.0 | 0.00 | 0.03 | 0.03 | 1014.4 | |
| 20260508122022 | 140 | 146 | 0.0 | 0.0 | 0.00 | 0.03 | 0.03 | 1014.6 | |
| 20260508121520 | 140 | 190 | 0.0 | 0.0 | 0.00 | 0.03 | 0.03 | 1014.6 | |
| 20260508121018 | 140 | 178 | 0.0 | 0.0 | 0.00 | 0.03 | 0.03 | 1014.7 | |
| 20260508120515 | 140 | 186 | 0.0 | 0.0 | 0.00 | 0.03 | 0.03 | 1014.6 | |
| 20260508120013 | 140 | 147 | 0.0 | 0.0 | 0.00 | 0.03 | 0.03 | 1014.6 | |
| 20260508115510 | 140 | 161 | 0.0 | 0.0 | 0.00 | 0.03 | 0.03 | 1014.5 | |
| 20260508115007 | 140 | 199 | 0.0 | 0.0 | 0.00 | 0.03 | 0.03 | 1014.6 | |
| 20260508114504 | 140 | 206 | 0.0 | 0.0 | 0.00 | 0.03 | 0.03 | 1014.8 | |
| 20260508114000 | 140 | 170 | 0.0 | 0.0 | 0.00 | 0.03 | 0.03 | 1014.9 | |
| 20260508113458 | 140 | 225 | 0.0 | 0.0 | 0.00 | 0.03 | 0.03 | 1014.5 | |
| 20260508112955 | 140 | 225 | 0.0 | 0.0 | 0.00 | 0.03 | 0.03 | 1014.6 | |
| 20260508112451 | 140 | 220 | 0.0 | 0.0 | 0.00 | 0.03 | 0.03 | 1014.5 | |
| 20260508111948 | 140 | 158 | 0.0 | 0.0 | 0.00 | 0.03 | 0.03 | 1014.6 | |
| 20260508111445 | 140 | 151 | 0.0 | 0.0 | 0.00 | 0.03 | 0.03 | 1014.7 | |
| 20260508110942 | 140 | 175 | 0.0 | 0.0 | 0.00 | 0.03 | 0.03 | 1014.6 | |
| 20260508110440 | 140 | 173 | 0.0 | 0.0 | 0.00 | 0.03 | 0.03 | 1014.8 | |
| 20260508105939 | 140 | 178 | 0.0 | 0.0 | 0.00 | 0.03 | 0.03 | 1014.9 | |
| 20260508105436 | 140 | 157 | 0.0 | 0.0 | 0.17 | 0.03 | 0.03 | 1014.6 | |
| 20260508104933 | 140 | 196 | 0.0 | 0.0 | 0.12 | 0.02 | 0.02 | 1014.8 | |
| 20260508104431 | 140 | 232 | 0.0 | 0.0 | 0.00 | 0.00 | 0.00 | 1015.0 | |
| 20260508103927 | 140 | 134 | 0.0 | 0.0 | 0.00 | 0.00 | 0.00 | 1014.5 | |
| 20260508103425 | 140 | 143 | 0.0 | 0.0 | 0.00 | 0.00 | 0.00 | 1014.6 | |
| 20260508102921 | 140 | 202 | 0.0 | 0.0 | 0.00 | 0.00 | 0.00 | 1014.6 | |
| 20260508102420 | 140 | 189 | 0.0 | 0.0 | 0.00 | 0.00 | 0.00 | 1014.7 | |
| 20260508101917 | 140 | 217 | 0.0 | 0.0 | 0.00 | 0.00 | 0.00 | 1014.6 | |
| 20260508101414 | 140 | 196 | 0.0 | 0.0 | 0.00 | 0.00 | 0.00 | 1014.6 | |
| 20260508100911 | 140 | 173 | 0.0 | 0.0 | 0.00 | 0.00 | 0.00 | 1014.5 | |
| 20260508100410 | 140 | 269 | 0.0 | 0.0 | 0.00 | 0.00 | 0.00 | 1014.6 | |
| 20260508095911 | 140 | 233 | 0.0 | 0.0 | 0.00 | 0.00 | 0.00 | 1014.6 | |
| 20260508095410 | 140 | 228 | 0.0 | 0.0 | 0.00 | 0.00 | 0.00 | 1014.5 | |
| 20260508094905 | 140 | 162 | 0.0 | 0.0 | 0.00 | 0.00 | 0.00 | 1014.2 | |
| 20260508094402 | 140 | 194 | 0.0 | 0.0 | 0.00 | 0.00 | 0.00 | 1014.4 | |
| 20260508093859 | 140 | 178 | 0.0 | 0.0 | 0.00 | 0.00 | 0.00 | 1014.7 | |
| 20260508093357 | 140 | 191 | 0.0 | 0.0 | 0.00 | 0.00 | 0.00 | 1014.6 | |
| 20260508092854 | 140 | 160 | 0.0 | 0.0 | 0.00 | 0.00 | 0.00 | 1014.6 | |
| 20260508092352 | 140 | 202 | 0.0 | 0.0 | 0.00 | 0.00 | 0.00 | 1014.8 | |
| 20260508091850 | 140 | 210 | 0.0 | 0.0 | 0.00 | 0.00 | 0.00 | 1014.6 | |
| 20260508091346 | 140 | 217 | 0.0 | 0.0 | 0.00 | 0.00 | 0.00 | 1014.9 | |
| 20260508090844 | 140 | 253 | 0.0 | 0.0 | 0.00 | 0.00 | 0.00 | 1014.9 | |
| 20260508090342 | 140 | 263 | 0.0 | 0.0 | 0.00 | 0.00 | 0.00 | 1014.5 | |
| 20260508085837 | 140 | 272 | 0.0 | 0.0 | 0.00 | 0.00 | 0.00 | 1014.7 | |
| 20260508085335 | 140 | 305 | 0.0 | 0.0 | 0.00 | 0.00 | 0.00 | 1014.6 | |
| 20260508084831 | 140 | 277 | 0.0 | 0.0 | 0.00 | 0.00 | 0.00 | 1014.7 | |
| 20260508084328 | 140 | 273 | 0.0 | 0.0 | 0.00 | 0.00 | 0.00 | 1014.7 | |
| 20260508083826 | 140 | 287 | 0.0 | 0.0 | 0.00 | 0.00 | 0.00 | 1014.2 | |
| 20260508083323 | 140 | 215 | 0.0 | 0.0 | 0.00 | 0.00 | 0.00 | 1014.4 | |
| 20260508082823 | 140 | 166 | 0.0 | 0.0 | 0.00 | 0.00 | 0.00 | 1014.2 | |
| 20260508082321 | 140 | 279 | 0.0 | 0.0 | 0.00 | 0.00 | 0.00 | 1014.4 | |
| 20260508081818 | 140 | 279 | 0.0 | 0.0 | 0.00 | 0.00 | 0.00 | 1014.5 | |
| 20260508081314 | 140 | 267 | 0.0 | 0.0 | 0.00 | 0.00 | 0.00 | 1014.5 | |
| 20260508080812 | 140 | 276 | 0.0 | 0.0 | 0.00 | 0.00 | 0.00 | 1014.7 | |
| 20260508080310 | 140 | 289 | 0.0 | 0.0 | 0.00 | 0.00 | 0.00 | 1014.5 | |
| 20260508075806 | 140 | 278 | 0.0 | 0.0 | 0.00 | 0.00 | 0.00 | 1014.6 | |
| 20260508075308 | 140 | 216 | 0.0 | 0.0 | 0.00 | 0.00 | 0.00 | 1014.7 | |
| 20260508074801 | 140 | 128 | 0.0 | 0.0 | 0.00 | 0.00 | 0.00 | 1014.5 | |
| 20260508074257 | 140 | 144 | 0.0 | 0.0 | 0.00 | 0.00 | 0.00 | 1014.6 | |
| 20260508073754 | 140 | 243 | 0.0 | 0.0 | 0.00 | 0.00 | 0.00 | 1015.2 | |
| 20260508073253 | 140 | 260 | 0.0 | 0.0 | 0.00 | 0.00 | 0.00 | 1015.1 | |
| 20260508072748 | 140 | 261 | 0.0 | 0.0 | 0.00 | 0.00 | 0.00 | 1014.9 | |
| 20260508072245 | 140 | 200 | 0.0 | 0.0 | 0.00 | 0.00 | 0.00 | 1015.2 | |
| 20260508071742 | 140 | 185 | 0.0 | 0.0 | 0.00 | 0.00 | 0.00 | 1015.1 | |
| 20260508071241 | 140 | 117 | 0.0 | 0.0 | 0.00 | 0.00 | 0.00 | 1015.3 | |
| 20260508070738 | 140 | 110 | 0.0 | 0.0 | 0.00 | 0.00 | 0.00 | 1015.4 | |
| 20260508070237 | 140 | 202 | 0.0 | 0.0 | 0.00 | 0.00 | 0.00 | 1015.5 | |
| 20260508065733 | 140 | 131 | 0.0 | 0.0 | 0.00 | 0.00 | 0.00 | 1015.3 | |
| 20260508065231 | 140 | 315 | 0.0 | 0.0 | 0.00 | 0.00 | 0.00 | 1015.6 | |
| 20260508064728 | 140 | 313 | 0.0 | 0.0 | 0.00 | 0.00 | 0.00 | 1015.8 | |
| 20260508064227 | 140 | 305 | 0.0 | 0.0 | 0.00 | 0.00 | 0.00 | 1016.2 | |
| 20260508063724 | 140 | 307 | 0.0 | 0.0 | 0.00 | 0.00 | 0.00 | 1016.1 | |
| 20260508063222 | 140 | 265 | 0.0 | 0.0 | 0.00 | 0.00 | 0.00 | 1015.8 | |
| 20260508062719 | 140 | 264 | 0.0 | 0.0 | 0.00 | 0.00 | 0.00 | 1015.8 | |
| 20260508062216 | 140 | 264 | 0.0 | 0.0 | 0.00 | 0.00 | 0.00 | 1015.7 | |
| 20260508061713 | 140 | 273 | 0.0 | 0.0 | 0.00 | 0.00 | 0.00 | 1015.9 | |
| 20260508061210 | 140 | 272 | 0.0 | 0.0 | 0.00 | 0.00 | 0.00 | 1015.8 | |
| 20260508060706 | 140 | 273 | 0.0 | 0.0 | 0.00 | 0.00 | 0.00 | 1015.7 | |
| 20260508060204 | 140 | 89 | 0.0 | 0.0 | 0.00 | 0.00 | 0.00 | 1015.6 | |
| 20260508055659 | 140 | 89 | 0.0 | 0.0 | 0.00 | 0.00 | 0.00 | 1015.6 | |
| 20260508055156 | 140 | 88 | 0.0 | 0.0 | 0.00 | 0.00 | 0.00 | 1015.4 | |
| 20260508054653 | 140 | 201 | 0.0 | 0.0 | 0.00 | 0.00 | 0.00 | 1015.6 | |
| 20260508054151 | 140 | 205 | 0.0 | 0.0 | 0.00 | 0.00 | 0.00 | 1015.7 | |
| 20260508053648 | 140 | 196 | 0.0 | 0.0 | 0.00 | 0.00 | 0.00 | 1015.5 | |
| 20260508053145 | 140 | 212 | 0.0 | 0.0 | 0.00 | 0.00 | 0.00 | 1015.9 | |
| 20260508052643 | 140 | 200 | 0.0 | 0.0 | 0.00 | 0.00 | 0.00 | 1015.7 | |
| 20260508052139 | 140 | 200 | 0.0 | 0.0 | 0.00 | 0.00 | 0.00 | 1015.9 | |
| 20260508051636 | 140 | 199 | 0.0 | 0.0 | 0.00 | 0.00 | 0.00 | 1016.0 | |
| 20260508051131 | 140 | 199 | 0.0 | 0.0 | 0.00 | 0.00 | 0.00 | 1016.2 | |
| 20260508050627 | 140 | 170 | 0.0 | 0.0 | 0.00 | 0.00 | 0.00 | 1016.0 | |
| 20260508050125 | 140 | 182 | 0.0 | 0.0 | 0.00 | 0.00 | 0.00 | 1016.4 | |
| 20260508045621 | 140 | 209 | 0.0 | 0.0 | 0.00 | 0.00 | 0.00 | 1016.2 | |
| 20260508045119 | 140 | 205 | 0.0 | 0.0 | 0.00 | 0.00 | 0.00 | 1016.4 | |
| 20260508044616 | 140 | 203 | 0.0 | 0.0 | 0.00 | 0.00 | 0.00 | 1016.0 | |
| 20260508044112 | 140 | 169 | 0.0 | 0.0 | 0.00 | 0.00 | 0.00 | 1015.9 | |
| 20260508043608 | 140 | 186 | 0.0 | 0.0 | 0.00 | 0.00 | 0.00 | 1015.7 | |
| 20260508043106 | 140 | 205 | 0.0 | 0.0 | 0.00 | 0.00 | 0.00 | 1016.0 | |
| 20260508042603 | 140 | 225 | 0.0 | 0.0 | 0.00 | 0.00 | 0.00 | 1015.8 | |
| 20260508042100 | 140 | 223 | 0.0 | 0.0 | 0.00 | 0.00 | 0.00 | 1016.0 | |
| 20260508041556 | 140 | 201 | 0.0 | 0.0 | 0.00 | 0.00 | 0.00 | 1016.0 | |
| 20260508041053 | 140 | 207 | 0.0 | 0.0 | 0.00 | 0.00 | 0.00 | 1015.9 | |
| 20260508040549 | 140 | 200 | 0.0 | 0.0 | 0.00 | 0.00 | 0.00 | 1015.8 | |
| 20260508040047 | 140 | 212 | 0.0 | 0.0 | 0.00 | 0.00 | 0.00 | 1015.9 | |
| 20260508035544 | 140 | 216 | 0.0 | 0.0 | 0.00 | 0.00 | 0.00 | 1015.8 | |
| 20260508035041 | 140 | 175 | 0.0 | 0.0 | 0.00 | 0.00 | 0.00 | 1016.0 | |
| 20260508034538 | 140 | 145 | 0.0 | 0.0 | 0.00 | 0.00 | 0.00 | 1015.7 | |
| 20260508034035 | 140 | 190 | 0.0 | 0.0 | 0.00 | 0.00 | 0.00 | 1015.6 | |
| 20260508033533 | 140 | 207 | 0.0 | 0.0 | 0.00 | 0.00 | 0.00 | 1015.8 | |
| 20260508033031 | 140 | 178 | 0.0 | 0.0 | 0.00 | 0.00 | 0.00 | 1015.4 | |
| 20260508032527 | 140 | 208 | 0.0 | 0.0 | 0.00 | 0.00 | 0.00 | 1015.3 | |
| 20260508032025 | 140 | 207 | 0.0 | 0.0 | 0.00 | 0.00 | 0.00 | 1015.5 | |
| 20260508031522 | 140 | 197 | 0.0 | 0.0 | 0.00 | 0.00 | 0.00 | 1015.3 | |
| 20260508031017 | 140 | 207 | 0.0 | 0.0 | 0.00 | 0.00 | 0.00 | 1015.4 | |
| 20260508030514 | 140 | 207 | 0.0 | 0.0 | 0.00 | 0.00 | 0.00 | 1015.5 | |
| 20260508030013 | 140 | 205 | 0.0 | 0.0 | 0.00 | 0.00 | 0.00 | 1015.3 | |
| 20260508025508 | 140 | 207 | 0.0 | 0.0 | 0.00 | 0.00 | 0.00 | 1015.3 | |
| 20260508025005 | 140 | 181 | 0.0 | 0.0 | 0.00 | 0.00 | 0.00 | 1015.0 | |
| 20260508024501 | 140 | 207 | 0.0 | 0.0 | 0.00 | 0.00 | 0.00 | 1015.1 | |
| 20260508023958 | 140 | 205 | 0.0 | 0.0 | 0.00 | 0.00 | 0.00 | 1015.2 | |
| 20260508023455 | 140 | 176 | 0.0 | 0.0 | 0.00 | 0.00 | 0.00 | 1014.9 | |
| 20260508022952 | 140 | 182 | 0.0 | 0.0 | 0.00 | 0.00 | 0.00 | 1015.0 | |
| 20260508022448 | 140 | 163 | 0.0 | 0.0 | 0.00 | 0.00 | 0.00 | 1015.0 | |
| 20260508021944 | 140 | 148 | 0.0 | 0.0 | 0.00 | 0.00 | 0.00 | 1014.8 | |
| 20260508021441 | 140 | 155 | 0.0 | 0.0 | 0.00 | 0.00 | 0.00 | 1014.9 | |
| 20260508020937 | 140 | 148 | 0.0 | 0.0 | 0.00 | 0.00 | 0.00 | 1014.8 | |
| 20260508020435 | 140 | 160 | 0.0 | 0.0 | 0.00 | 0.00 | 0.00 | 1014.6 | |
| 20260508015931 | 140 | 154 | 0.0 | 0.0 | 0.00 | 0.00 | 0.00 | 1014.8 | |
| 20260508015429 | 140 | 172 | 0.0 | 0.0 | 0.00 | 0.00 | 0.00 | 1014.7 | |
| 20260508014926 | 140 | 159 | 0.0 | 0.0 | 0.00 | 0.00 | 0.00 | 1014.7 | |
| 20260508014423 | 140 | 140 | 0.0 | 0.0 | 0.00 | 0.00 | 0.00 | 1014.6 | |
| 20260508013918 | 140 | 150 | 0.0 | 0.0 | 0.00 | 0.00 | 0.00 | 1014.6 | |
| 20260508013414 | 140 | 159 | 0.0 | 0.0 | 0.00 | 0.00 | 0.00 | 1014.6 | |
| 20260508012912 | 140 | 153 | 0.0 | 0.0 | 0.00 | 0.00 | 0.00 | 1014.8 | |
| 20260508012409 | 140 | 108 | 0.0 | 0.0 | 0.00 | 0.00 | 0.00 | 1014.6 | |
| 20260508011907 | 140 | 164 | 0.0 | 0.0 | 0.00 | 0.00 | 0.00 | 1014.7 | |
| 20260508011404 | 140 | 174 | 0.0 | 0.0 | 0.00 | 0.00 | 0.00 | 1014.8 | |
| 20260508010901 | 140 | 148 | 0.0 | 0.0 | 0.00 | 0.00 | 0.00 | 1014.7 | |
| 20260508010358 | 140 | 137 | 0.0 | 0.0 | 0.00 | 0.00 | 0.00 | 1014.8 | |
| 20260508005855 | 140 | 175 | 0.0 | 0.0 | 0.00 | 0.00 | 0.00 | 1014.9 | |
| 20260508005352 | 140 | 141 | 0.0 | 0.0 | 0.00 | 0.00 | 0.00 | 1014.7 | |
| 20260508004848 | 140 | 159 | 0.0 | 0.0 | 0.00 | 0.00 | 0.00 | 1014.6 | |
| 20260508004345 | 140 | 144 | 0.0 | 0.0 | 0.00 | 0.00 | 0.00 | 1014.6 | |
| 20260508003841 | 140 | 132 | 0.0 | 0.0 | 0.00 | 0.00 | 0.00 | 1014.8 | |
| 20260508003338 | 140 | 159 | 0.0 | 0.0 | 0.00 | 0.00 | 0.00 | 1014.8 | |
| 20260508002836 | 140 | 164 | 0.0 | 0.0 | 0.00 | 0.00 | 0.00 | 1014.9 | |
| 20260508002332 | 140 | 128 | 0.0 | 0.0 | 0.00 | 0.00 | 0.00 | 1015.1 | |
| 20260508001828 | 140 | 138 | 0.0 | 0.0 | 0.00 | 0.00 | 0.00 | 1015.1 | |
| 20260508001325 | 140 | 144 | 0.0 | 0.0 | 0.00 | 0.00 | 0.00 | 1014.9 | |
| 20260508000821 | 140 | 128 | 0.0 | 0.0 | 0.00 | 0.00 | 0.00 | 1014.6 | |
| 20260508000319 | 140 | 106 | 0.0 | 0.0 | 0.00 | 0.00 | 0.00 | 1015.0 | |
| 20260507235814 | 140 | 167 | 0.0 | 0.0 | 0.00 | 0.00 | 0.00 | 1015.0 | |
| 20260507235312 | 140 | 157 | 0.0 | 0.0 | 0.00 | 0.00 | 0.00 | 1015.0 | |
| 20260507234809 | 140 | 185 | 0.0 | 3.0 | 0.00 | 0.00 | 0.00 | 1015.0 | |
| 20260507234305 | 140 | 175 | 0.0 | 0.0 | 0.00 | 0.00 | 0.00 | 1015.0 | |
| 20260507233801 | 140 | 172 | 0.0 | 0.0 | 0.00 | 0.00 | 0.00 | 1015.0 | |
| 20260507233259 | 140 | 186 | 0.0 | 0.0 | 0.00 | 0.00 | 0.00 | 1015.2 | |
| 20260507232757 | 140 | 183 | 0.0 | 0.0 | 0.00 | 0.00 | 0.00 | 1015.1 | |
| 20260507232253 | 140 | 171 | 0.0 | 0.0 | 0.00 | 0.00 | 0.00 | 1015.3 | |
| 20260507231750 | 140 | 162 | 0.0 | 0.0 | 0.00 | 0.00 | 0.00 | 1014.9 | |
| 20260507231247 | 140 | 144 | 0.0 | 0.0 | 0.00 | 0.00 | 0.00 | 1015.1 | |
| 20260507230743 | 140 | 120 | 0.0 | 1.0 | 0.00 | 0.00 | 0.00 | 1015.3 | |
| 20260507230241 | 140 | 159 | 0.0 | 0.0 | 0.00 | 0.00 | 0.00 | 1015.3 | |
| 20260507225740 | 140 | 91 | 0.0 | 0.0 | 0.00 | 0.00 | 0.00 | 1015.2 | |
| 20260507225237 | 140 | 126 | 0.0 | 0.0 | 0.00 | 0.00 | 0.00 | 1015.2 | |
| 20260507224733 | 140 | 158 | 0.0 | 0.0 | 0.00 | 0.00 | 0.00 | 1015.3 | |
| 20260507224230 | 140 | 125 | 3.0 | 5.0 | 0.00 | 0.00 | 0.00 | 1015.4 | |
| 20260507223726 | 140 | 158 | 0.0 | 0.0 | 0.00 | 0.00 | 0.00 | 1015.4 | |
| 20260507223223 | 140 | 144 | 0.0 | 0.0 | 0.00 | 0.00 | 0.00 | 1015.5 | |
| 20260507222719 | 140 | 157 | 2.0 | 6.0 | 0.00 | 0.00 | 0.00 | 1015.4 | |
| 20260507222216 | 140 | 139 | 0.0 | 0.0 | 0.00 | 0.00 | 0.00 | 1015.3 | |
| 20260507221713 | 140 | 133 | 0.0 | 1.0 | 0.00 | 0.00 | 0.00 | 1015.3 | |
| 20260507221209 | 140 | 156 | 0.0 | 0.0 | 0.00 | 0.00 | 0.00 | 1015.4 | |
| 20260507220706 | 140 | 102 | 0.0 | 0.0 | 0.00 | 0.00 | 0.00 | 1015.3 | |
| 20260507220204 | 140 | 120 | 0.0 | 0.0 | 0.00 | 0.00 | 0.00 | 1015.6 | |
| 20260507215700 | 140 | 98 | 1.0 | 1.0 | 0.00 | 0.00 | 0.00 | 1015.5 | |
| 20260507215158 | 140 | 109 | 0.0 | 0.0 | 0.00 | 0.00 | 0.00 | 1015.7 | |
| 20260507214654 | 140 | 127 | 0.0 | 0.0 | 0.00 | 0.00 | 0.00 | 1015.5 | |
| 20260507214151 | 140 | 92 | 0.0 | 2.0 | 0.00 | 0.00 | 0.00 | 1015.6 | |
| 20260507213647 | 140 | 96 | 6.0 | 8.0 | 0.00 | 0.00 | 0.00 | 1015.3 | |
| 20260507213144 | 140 | 99 | 0.0 | 0.0 | 0.00 | 0.00 | 0.00 | 1015.6 | |
| 20260507212640 | 140 | 145 | 0.0 | 0.0 | 0.00 | 0.00 | 0.00 | 1015.6 | |
| 20260507212137 | 140 | 120 | 0.0 | 0.0 | 0.00 | 0.00 | 0.00 | 1015.8 | |
| 20260507211634 | 140 | 80 | 1.0 | 5.0 | 0.00 | 0.00 | 0.00 | 1016.1 | |
| 20260507211129 | 140 | 99 | 0.0 | 0.0 | 0.00 | 0.00 | 0.00 | 1016.0 | |
| 20260507210628 | 140 | 86 | 1.0 | 3.0 | 0.00 | 0.00 | 0.00 | 1016.0 | |
| 20260507210124 | 140 | 156 | 0.0 | 0.0 | 0.00 | 0.00 | 0.00 | 1016.4 | |
| 20260507205621 | 140 | 110 | 0.0 | 0.0 | 0.00 | 0.00 | 0.00 | 1016.3 | |
| 20260507205117 | 140 | 103 | 0.0 | 0.0 | 0.00 | 0.00 | 0.00 | 1016.5 | |
| 20260507204613 | 140 | 94 | 0.0 | 0.0 | 0.00 | 0.00 | 0.00 | 1016.4 | |
| 20260507204111 | 140 | 80 | 0.0 | 0.0 | 0.00 | 0.00 | 0.00 | 1016.6 | |
| 20260507203609 | 140 | 212 | 0.0 | 0.0 | 0.00 | 0.00 | 0.00 | 1016.3 | |
| 20260507203106 | 140 | 34 | 2.0 | 5.0 | 0.00 | 0.00 | 0.00 | 1016.3 | |
| 20260507202601 | 140 | 47 | 1.0 | 2.0 | 0.00 | 0.00 | 0.00 | 1016.3 | |
| 20260507202058 | 140 | 47 | 0.0 | 0.0 | 0.00 | 0.00 | 0.00 | 1016.3 | |
| 20260507201553 | 140 | 36 | 5.0 | 6.0 | 0.00 | 0.00 | 0.00 | 1016.1 | |
| 20260507201050 | 140 | 7 | 2.0 | 8.0 | 0.00 | 0.00 | 0.00 | 1016.1 | |
| 20260507200545 | 140 | 42 | 3.0 | 8.0 | 0.00 | 0.00 | 0.00 | 1016.4 | |
| 20260507200042 | 140 | 120 | 0.0 | 0.0 | 0.00 | 0.00 | 0.00 | 1016.5 | |
| 20260507195539 | 140 | 6 | 10.0 | 11.0 | 0.00 | 0.00 | 0.00 | 1016.3 | |
| 20260507195037 | 140 | 104 | 0.0 | 0.0 | 0.00 | 0.00 | 0.00 | 1016.4 | |
| 20260507194533 | 140 | 29 | 0.0 | 2.0 | 0.00 | 0.00 | 0.00 | 1016.7 | |
| 20260507194029 | 140 | 16 | 10.0 | 10.0 | 0.00 | 0.00 | 0.00 | 1016.8 | |
| 20260507193526 | 140 | 77 | 4.0 | 8.0 | 0.00 | 0.00 | 0.00 | 1016.7 | |
| 20260507193023 | 140 | 72 | 0.0 | 0.0 | 0.00 | 0.00 | 0.00 | 1017.1 | |
| 20260507192519 | 140 | 142 | 0.0 | 0.0 | 0.00 | 0.00 | 0.00 | 1016.8 | |
| 20260507192016 | 140 | 77 | 9.0 | 10.0 | 0.00 | 0.00 | 0.00 | 1016.9 | |
| 20260507191512 | 140 | 162 | 3.0 | 3.0 | 0.00 | 0.00 | 0.00 | 1017.3 | |
| 20260507191009 | 140 | 47 | 7.0 | 8.0 | 0.00 | 0.00 | 0.00 | 1017.2 | |
| 20260507190506 | 140 | 82 | 0.0 | 0.0 | 0.00 | 0.00 | 0.00 | 1017.8 | |
| 20260507190006 | 140 | 90 | 3.0 | 6.0 | 0.00 | 0.00 | 0.00 | 1017.6 | |
| 20260507185502 | 140 | 75 | 0.0 | 1.0 | 0.00 | 0.00 | 0.00 | 1017.6 | |
| 20260507184959 | 140 | 48 | 3.0 | 5.0 | 0.00 | 0.00 | 0.00 | 1017.8 | |
| 20260507184457 | 140 | 56 | 6.0 | 11.0 | 0.00 | 0.00 | 0.00 | 1017.9 | |
| 20260507183955 | 140 | 23 | 5.0 | 7.0 | 0.00 | 0.00 | 0.00 | 1018.0 | |
| 20260507183450 | 140 | 56 | 1.0 | 5.0 | 0.00 | 0.00 | 0.00 | 1018.1 | |
| 20260507182948 | 140 | 47 | 6.0 | 8.0 | 0.00 | 0.00 | 0.00 | 1017.9 |